Погода в Езуполе

Украина / Ивано-Франковская область     49°02′30″N   24°46′48″E
темп.,
°C
ветер,
м/с
пор.,
м/с
влажн.,
%
обл.,
%
осадки,
мм/ч
давл.,
гПа
погр.,
м
13 мая, чт
чт1300:00+10вюв714816 0.0 1009528
03:00+8вюв6128457 0.0 1006432
06:00+10юв61077100 0.0 1005494
09:00+10юв468499 0.1 1004325
12:00+14юв337796 0.1 1003504
15:00+16зюз0177100 0.9 100256
18:00+15в118192 1.2 1002118
21:00+12юв228938 2.4 100227
14 мая, пт
пт1400:00+9ююв22965 0.2 100345
03:00+9ююв229386 0.2 100431
06:00+10ююз228675 0.0 100322
09:00+14ю3677100 0.0 1004446
12:00+18юз465875 0.1 10041686
15:00+17юз676035 1.3 10051442
18:00+14зюз466571 0.1 10061297
21:00+12з3573100 0.1 1007203
15 мая, сб
сб1500:00+12зюз2670100 0.0 1009267
03:00+10юз2484100 0.2 1009138
06:00+10з268393 0.1 1010182
09:00+13зсз237435 0.1 1011557
12:00+16ююз236337 0.0 10111050
15:00+18сз116321 0.9 10111090
18:00+18всв226518 0.6 10101057
21:00+13в22868 1.8 101018
16 мая, вс
вс1600:00+11вюв1190100 0.1 101013
03:00+10вюв119281 0.1 101011
06:00+9юв1194100 0.0 101011
09:00+13юв2385100 0.0 1010279
12:00+19юв3466100 0.0 1009676
15:00+20ююв566342 0.8 10071079
18:00+17ююв3681100 5.1 1006209
21:00+15зсз4784100 6.7 1007123
17 мая, пн
пн1700:00+12зюз2293100 1.2 100946
03:00+11зсз3696100 1.9 1009149
06:00+10зсз259598 0.0 1010178
09:00+14зсз23830 0.0 1011396
12:00+18ссз33635 0.1 10101338
15:00+20ссв125379 0.1 10091484
18:00+19всв225723 0.0 1007991
21:00+14в2277100 0.0 100722